This demonstration page uses our WeatherBlox Daily Observations layout. Learn more.

Left ArrowRight Arrow

34.02893, -84.19858

Hourly Observations for November 25, 2019

Temp ( °F °C ) Dew Point ( °F °C ) Humidity (%) Winds ( mph kmh ) Pressure ( in mb ) Visibility ( mi km ) Precip ( " mm )
12:53 am 00:53 Clear 36 2.2 34 1.1 93 93 Calm 29.91 1013 10 16 0.00 0.00
1:53 am 01:53 Clear 36 2.2 34 1.1 93 93 Calm 29.91 1013 10 16 0.00 0.00
2:53 am 02:53 Clear 36 2.2 34 1.1 93 93 Calm 29.90 1013 10 16 0.00 0.00
3:53 am 03:53 Clear 34 1.1 32 0 92 92 WNW 3 6 29.91 1013 10 16 0.00 0.00
4:53 am 04:53 Clear 34 1.1 32 0 92 92 Calm 29.91 1013 10 16 0.00 0.00
5:53 am 05:53 Clear 32 0 31 -0.6 96 96 SW 3 6 29.91 1013 10 16 0.00 0.00
6:53 am 06:53 Clear 33 0.6 32 0 96 96 Calm 29.93 1014 10 16 0.00 0.00
7:53 am 07:53 Sunny 33 0.6 32 0 96 96 WSW 3 6 29.94 1014 9 14 0.00 0.00
8:53 am 08:53 Sunny 42 5.6 37 2.8 82 82 W 5 7 29.95 1014 10 16 0.00 0.00
9:53 am 09:53 Sunny 46 7.8 37 2.8 71 71 NW 5 7 29.96 1015 10 16 0.00 0.00
10:53 am 10:53 Sunny 51 10.6 37 2.8 59 59 WNW 6 9 29.95 1014 10 16 0.00 0.00
11:53 am 11:53 Sunny 55 12.8 37 2.8 51 51 W 3 6 29.93 1013 10 16 0.00 0.00
12:53 pm 12:53 Sunny 57 13.9 37 2.8 47 47 WNW 7 11 29.90 1013 10 16 0.00 0.00
1:53 pm 13:53 Sunny 59 15 36 2.2 42 42 SW 7 11 29.89 1012 10 16 0.00 0.00
2:53 pm 14:53 Sunny 61 16.1 35 1.7 38 38 NW 8 13 29.88 1012 10 16 0.00 0.00
3:53 pm 15:53 Sunny 61 16.1 35 1.7 38 38 W 7 11 29.88 1012 10 16 0.00 0.00
4:53 pm 16:53 Sunny 59 15 35 1.7 41 41 Calm 29.89 1012 10 16 0.00 0.00
5:53 pm 17:53 Clear 50 10 38 3.3 63 63 Calm 29.92 1013 10 16 0.00 0.00
7:53 pm 19:53 Clear 44 6.7 39 3.9 83 83 Calm 29.97 1015 10 16 0.00 0.00
8:53 pm 20:53 Clear 43 6.1 38 3.3 82 82 Calm 29.97 1015 10 16 0.00 0.00
9:53 pm 21:53 Clear 40 4.4 37 2.8 89 89 Calm 29.98 1015 10 16 0.00 0.00
10:53 pm 22:53 Clear 39 3.9 37 2.8 93 93 Calm 29.98 1015 10 16 0.00 0.00
11:53 pm 23:53 Clear 38 3.3 37 2.8 97 97 Calm 29.99 1016 10 16 0.00 0.00

Powered by AerisWeather